| time (UTC) | temp F | wind direction | speed knots | gust knots | rain 1hr in | rain 24hr in | rain mn in | humidity % | barometer mb |
| 20260503050039 | 44 | 301 | 1.7 | 3.5 | 0.00 | 0.00 | 0.00 | 67 | 971.9 |
| 20260503044535 | 45 | 315 | 1.7 | 3.5 | 0.00 | 0.00 | 0.00 | 66 | 971.7 |
| 20260503043033 | 45 | 318 | 1.7 | 4.3 | 0.00 | 0.00 | 0.00 | 65 | 971.5 |
| 20260503041530 | 46 | 290 | 1.7 | 3.5 | 0.00 | 0.00 | 0.00 | 64 | 971.6 |
| 20260503040034 | 46 | 294 | 1.7 | 3.5 | 0.00 | 0.00 | 0.00 | 62 | 971.4 |
| 20260503034535 | 46 | 300 | 1.7 | 3.5 | 0.00 | 0.00 | 0.00 | 63 | 971.4 |
| 20260503033029 | 46 | 306 | 0.9 | 2.6 | 0.00 | 0.00 | 0.00 | 63 | 971.3 |
| 20260503031524 | 45 | 314 | 0.9 | 3.5 | 0.00 | 0.00 | 0.00 | 65 | 971.0 |
| 20260503030021 | 45 | 308 | 0.9 | 1.7 | 0.00 | 0.00 | 0.00 | 70 | 971.1 |
| 20260503024519 | 46 | 308 | 0.0 | 1.7 | 0.00 | 0.00 | 0.00 | 65 | 971.0 |
| 20260503023017 | 45 | 306 | 0.9 | 2.6 | 0.00 | 0.00 | 0.00 | 66 | 970.9 |
| 20260503021514 | 46 | 305 | 0.0 | 3.5 | 0.00 | 0.00 | 0.00 | 66 | 970.7 |
| 20260503020010 | 48 | 318 | 0.0 | 1.7 | 0.00 | 0.00 | 0.00 | 59 | 970.5 |
| 20260503014508 | 49 | 318 | 0.0 | 2.6 | 0.00 | 0.00 | 0.00 | 56 | 970.6 |
| 20260503013018 | 51 | 335 | 0.0 | 3.5 | 0.00 | 0.00 | 0.00 | 54 | 970.3 |
| 20260503011505 | 52 | 335 | 1.7 | 8.7 | 0.00 | 0.00 | 0.00 | 50 | 970.1 |
| 20260503010004 | 52 | 306 | 2.6 | 9.6 | 0.00 | 0.00 | 0.00 | 49 | 970.1 |
| 20260503004504 | 52 | 338 | 1.7 | 10.4 | 0.00 | 0.00 | 0.00 | 49 | 970.1 |
| 20260503003004 | 53 | 327 | 1.7 | 7.8 | 0.00 | 0.00 | 0.00 | 49 | 970.0 |
| 20260503001502 | 53 | 11 | 4.3 | 11.3 | 0.00 | 0.00 | 0.00 | 48 | 969.7 |
| 20260503000002 | 54 | 311 | 1.7 | 10.4 | 0.00 | 0.00 | 0.00 | 48 | 969.4 |
| 20260502234501 | 55 | 288 | 5.2 | 13.0 | 0.00 | 0.00 | 0.00 | 45 | 969.0 |
| 20260502233002 | 55 | 303 | 7.0 | 14.8 | 0.00 | 0.00 | 0.00 | 45 | 968.7 |
| 20260502231612 | 56 | 335 | 6.1 | 15.6 | 0.00 | 0.00 | 0.00 | 44 | 968.3 |
| 20260502230059 | 58 | 286 | 2.6 | 8.7 | 0.00 | 0.00 | 0.00 | 43 | 968.4 |
| 20260502224559 | 58 | 315 | 2.6 | 7.8 | 0.00 | 0.00 | 0.00 | 44 | 968.3 |
| 20260502223059 | 57 | 5 | 6.1 | 13.9 | 0.00 | 0.00 | 0.00 | 45 | 968.4 |
| 20260502221604 | 58 | 312 | 6.1 | 13.9 | 0.00 | 0.00 | 0.00 | 44 | 968.3 |
| 20260502220104 | 58 | 36 | 4.3 | 14.8 | 0.00 | 0.00 | 0.00 | 43 | 968.1 |
| 20260502214606 | 58 | 308 | 7.0 | 13.9 | 0.00 | 0.00 | 0.00 | 43 | 967.9 |
| 20260502213057 | 59 | 54 | 7.0 | 12.2 | 0.00 | 0.00 | 0.00 | 42 | 967.6 |
| 20260502211602 | 60 | 283 | 7.8 | 16.5 | 0.00 | 0.00 | 0.00 | 41 | 967.3 |
| 20260502204656 | 61 | 300 | 6.1 | 12.2 | 0.00 | 0.00 | 0.00 | 40 | 966.8 |
| 20260502203059 | 61 | 360 | 7.0 | 12.2 | 0.00 | 0.00 | 0.00 | 40 | 966.8 |
| 20260502201553 | 62 | 355 | 2.6 | 9.6 | 0.00 | 0.00 | 0.00 | 39 | 966.8 |
| 20260502200052 | 63 | 300 | 7.0 | 12.2 | 0.00 | 0.00 | 0.00 | 37 | 966.9 |
| 20260502194550 | 62 | 326 | 6.1 | 11.3 | 0.00 | 0.00 | 0.00 | 38 | 967.2 |
| 20260502193048 | 63 | 304 | 4.3 | 9.6 | 0.00 | 0.00 | 0.00 | 37 | 967.3 |
| 20260502191543 | 61 | 53 | 3.5 | 11.3 | 0.00 | 0.00 | 0.00 | 39 | 967.6 |
| 20260502190043 | 61 | 292 | 4.3 | 13.9 | 0.00 | 0.00 | 0.00 | 40 | 967.7 |
| 20260502184542 | 60 | 302 | 4.3 | 10.4 | 0.00 | 0.00 | 0.00 | 40 | 967.7 |
| 20260502183040 | 60 | 18 | 4.3 | 12.2 | 0.00 | 0.00 | 0.00 | 39 | 967.8 |
| 20260502181534 | 60 | 68 | 1.7 | 7.0 | 0.00 | 0.00 | 0.00 | 45 | 968.1 |
| 20260502163018 | 54 | 355 | 0.9 | 7.8 | 0.00 | 0.00 | 0.00 | 52 | 969.8 |
| 20260502161516 | 54 | 313 | 5.2 | 10.4 | 0.00 | 0.00 | 0.00 | 51 | 969.9 |
| 20260502151512 | 51 | 95 | 3.5 | 8.7 | 0.00 | 0.00 | 0.00 | 53 | 970.5 |
| 20260502123057 | 50 | 309 | 2.6 | 5.2 | 0.00 | 0.00 | 0.00 | 56 | 969.8 |
| 20260502121601 | 50 | 14 | 0.9 | 7.0 | 0.00 | 0.00 | 0.00 | 55 | 969.5 |
| 20260502120110 | 50 | 298 | 2.6 | 9.6 | 0.00 | 0.00 | 0.00 | 55 | 969.7 |
| 20260502114600 | 50 | 316 | 2.6 | 11.3 | 0.00 | 0.00 | 0.00 | 56 | 969.7 |
| 20260502113050 | 50 | 337 | 5.2 | 9.6 | 0.00 | 0.00 | 0.00 | 57 | 969.4 |
| 20260502111553 | 50 | 321 | 1.7 | 8.7 | 0.00 | 0.00 | 0.00 | 64 | 969.4 |
| 20260502110049 | 50 | 64 | 4.3 | 9.6 | 0.00 | 0.00 | 0.00 | 63 | 969.1 |
| 20260502104552 | 50 | 355 | 1.7 | 5.2 | 0.00 | 0.00 | 0.00 | 62 | 969.2 |
| 20260502103047 | 51 | 297 | 2.6 | 13.0 | 0.00 | 0.00 | 0.00 | 63 | 969.0 |
| 20260502101547 | 51 | 355 | 1.7 | 13.9 | 0.00 | 0.00 | 0.00 | 66 | 968.9 |
| 20260502070027 | 53 | 340 | 3.5 | 10.4 | 0.00 | 0.00 | 0.00 | 72 | 968.3 |
| 20260502064523 | 53 | 40 | 2.6 | 8.7 | 0.00 | 0.00 | 0.00 | 72 | 968.4 |
| 20260502063021 | 54 | 111 | 3.5 | 7.8 | 0.00 | 0.00 | 0.00 | 72 | 968.8 |
| 20260502061519 | 54 | 342 | 1.7 | 4.3 | 0.00 | 0.00 | 0.00 | 71 | 969.1 |
| 20260502060019 | 54 | 326 | 0.9 | 4.3 | 0.00 | 0.00 | 0.00 | 71 | 969.3 |
| 20260502054520 | 54 | 355 | 0.9 | 4.3 | 0.00 | 0.00 | 0.00 | 74 | 969.3 |
| 20260502053016 | 54 | 355 | 0.9 | 1.7 | 0.00 | 0.00 | 0.00 | 75 | 969.3 |
| 20260502051530 | 54 | 355 | 0.9 | 7.0 | 0.00 | 0.00 | 0.00 | 75 | 969.1 |